SCP
-0 -0 0 0 0 -0 0 0 0 0 0 0 -0 0 0 0 -0 -0 -0 -0 0 0 -0 0 0 0 0 0 0 -0 -0 -0 -0 -0 -0 -0 -0 -0 -0 -0 -0 -0 -0 -0 -0 -0 -0 -0 -0
-0 -0 0 0 -0 -0 0 0 0 0 0 -0 -0 0 0 0 -0 0 0 0 0 0 -0 -0 0 0 0 0 0 0 -0 -0 -0 -0 -0 0 0 0 -0 -0 -0 -0 -0 -0 -0 -0 -0 -0 -0
-0 -0 0 0 -0 0 0 0 0 0 0 -0 0 0 0 -0 -0 -0 0 0 0 0 -0 -0 0 0 0 0 0 0 -0 0 0 0 0 0 0 0 0 -0 0 -0 0 0 -0 0 0 0 0
-0 -0 -0 -0 0 0 0 0 0 -0 0 0 -0 -0 -0 0 -0 -0 0 0 0 0 0 0 0 0 0 -0 0 0 -0 0 0 0 -0 0 0 0 -0 -0 -0 -0 0 0 0 0 0 -0 -0
-0 0 0 0 -0 0 0 0 0 0 -0 0 0 0 -0 0 0 -0 0 0 0 0 -0 -0 0 0 0 -0 0 -0 0 0 0 0 -0 -0 -0 -0 0 0 0 0 0 0 0 0 0 0 0
-0 0 0 0 -0 -0 0 -0 -0 -0 -0 -0 -0 -0 -0 0 -0 -0 0 0 0 -0 -0 -0 0 -0 -0 -0 -0 -0 0 0 0 0 0 0 0 0 0 0 0 0 0 0 0 0 0 0 0
0 -0 0 -0 0 0 0 0 0 0 0 0 -0 0 0 -0 -0 -0 0 0 0 -0 -0 -0 -0 -0 -0 -0 0 0 0 0 0 0 0 0 0 0 0 0 0 0 0 0 0 0 0 0 0
0 0 -0 -0 0 0 -0 -0 -0 -0 0 -0 -0 -0 -0 -0 -0 -0 0 0 -0 -0 -0 -0 -0 -0 -0 0 0 0 0 0 0 0 0 0 0 0 0 0 0 0 0 0 0 0 0 0 0
0 -0 -0 0 -0 0 0 0 -0 0 -0 0 0 0 -0 -0 -0 -0 0 0 -0 -0 -0 -0 -0 -0 -0 0 0 0 0 0 0 0 0 0 0 0 0 0 0 0 0 0 0 0 0 0 0
0 -0 -0 -0 0 0 0 0 -0 0 -0 0 -0 -0 -0 -0 -0 -0 -0 0 0 -0 -0 -0 -0 -0 -0 0 0 0 0 0 0 0 0 0 0 0 0 0 0 0 0 0 0 0 0 0 0
0 0 0 0 0 -0 -0 -0 0 -0 0 0 -0 -0 -0 -0 -0 -0 -0 -0 -0 -0 -0 -0 -0 -0 -0 0 0 0 0 0 0 0 0 0 0 0 0 0 0 0 0 0 0 -0 0 0 0
0 -0 0 0 0 0 -0 0 0 -0 -0 -0 -0 -0 -0 -0 -0 -0 -0 -0 0 -0 -0 -0 -0 -0 -0 0 0 0 -0 -0 0 0 0 0 0 0 0 0 0 0 0 0 0 0 0 0 0
-0 0 0 0 0 -0 0 -0 0 -0 -0 -0 -0 -0 -0 -0 -0 -0 0 0 0 -0 -0 -0 -0 -0 -0 -0 -0 -0 -0 -0 -0 -0 0 0 0 0 0 0 0 0 0 0 0 -0 -0 0 0
-0 -0 0 0 0 0 0 0 0 0 -0 -0 -0 -0 -0 -0 -0 -0 -0 0 0 0 -0 -0 -0 -0 -0 -0 -0 -0 -0 -0 -0 0 0 0 0 0 0 0 0 0 -0 0 0 -0 0 0 0
-0 0 0 0 0 0 0 0 0 -0 -0 -0 -0 -0 -0 -0 -0 -0 -0 -0 0 -0 -0 -0 -0 -0 -0 -0 -0 -0 -0 -0 -0 0 0 0 0 0 0 0 0 0 -0 -0 0 -0 0 0 0
0 0 0 0 0 0 0 -0 0 -0 -0 -0 -0 -0 -0 -0 -0 -0 -0 -0 0 -0 -0 -0 -0 -0 -0 -0 -0 -0 0 0 0 0 0 0 0 0 0 0 0 0 -0 0 0 0 -0 0 0
0 0 0 0 0 0 0 0 0 -0 -0 -0 -0 -0 -0 -0 -0 0 0 -0 -0 -0 -0 -0 -0 -0 -0 -0 -0 -0 0 -0 -0 0 0 0 0 0 0 0 0 0 0 0 -0 0 0 0 -0
0 0 0 0 0 0 0 0 -0 -0 -0 -0 -0 -0 -0 -0 -0 0 -0 -0 0 -0 -0 -0 -0 -0 -0 -0 -0 -0 -0 0 -0 -0 0 0 0 0 0 0 0 0 0 0 0 0 0 -0 -0
0 0 0 0 0 0 0 0 0 -0 -0 -0 -0 -0 -0 -0 -0 0 0 0 0 0 0 -0 -0 -0 -0 -0 -0 -0 0 0 0 0 0 0 0 0 0 -0 -0 0 0 0 0 -0 0 0 -0
0 0 0 0 0 0 0 0 0 0 -0 -0 -0 -0 -0 -0 -0 -0 0 0 0 0 0 0 -0 -0 0 -0 -0 -0 -0 0 0 0 -0 0 0 0 0 0 0 0 0 0 0 0 -0 -0 0
0 0 0 0 0 0 0 0 0 0 0 0 -0 -0 -0 -0 -0 -0 0 0 0 0 0 0 0 0 0 0 0 0 0 0 0 0 0 -0 -0 -0 -0 0 0 0 0 0 0 0 -0 -0 -0
0 0 0 0 0 0 0 0 0 0 0 0 -0 -0 -0 -0 -0 -0 -0 -0 0 0 0 0 0 0 0 0 0 0 0 0 -0 0 0 0 -0 -0 -0 -0 0 0 0 0 0 0 -0 -0 0
0 0 0 -0 0 0 0 0 0 0 0 0 -0 -0 -0 -0 -0 -0 -0 -0 0 0 0 0 0 0 0 0 0 0 0 0 0 -0 -0 0 -0 -0 -0 -0 -0 -0 0 0 0 0 0 -0 -0
0 0 0 0 0 0 0 0 0 -0 0 -0 -0 -0 -0 -0 -0 -0 -0 -0 0 0 0 0 0 0 0 0 0 0 0 0 0 -0 -0 -0 -0 -0 -0 -0 -0 -0 -0 -0 -0 -0 0 -0 -0
0 0 0 0 0 0 0 0 -0 -0 0 0 0 -0 -0 -0 -0 -0 -0 -0 0 0 0 0 0 0 0 0 0 0 0 0 0 0 -0 -0 -0 -0 0 -0 -0 -0 -0 -0 -0 -0 0 0 -0
0 0 0 0 0 0 0 0 -0 -0 0 0 0 0 0 -0 -0 -0 -0 -0 0 0 0 0 0 0 0 0 0 0 0 0 0 0 0 -0 -0 -0 0 -0 -0 -0 -0 -0 -0 0 0 -0 0
0 0 0 0 0 0 -0 0 -0 0 0 0 0 0 0 0 -0 -0 -0 -0 0 0 0 0 0 0 0 0 0 0 0 0 0 0 0 -0 -0 -0 -0 -0 -0 -0 -0 -0 -0 0 -0 -0 -0
0 0 0 0 0 0 0 0 -0 0 0 0 0 0 0 0 0 0 -0 -0 0 0 0 0 0 0 0 0 0 0 0 0 0 0 0 0 -0 -0 -0 -0 0 0 -0 -0 -0 -0 0 -0 -0
0 0 0 0 0 0 -0 0 0 0 0 0 0 0 0 -0 0 0 -0 -0 0 0 0 0 0 0 0 0 0 0 0 0 0 0 0 0 -0 -0 -0 -0 -0 0 0 0 -0 -0 -0 -0 -0
0 0 0 0 0 0 0 -0 0 0 0 0 0 0 0 0 0 0 0 -0 0 0 0 0 0 0 0 0 0 0 0 0 0 0 -0 0 -0 -0 -0 -0 0 0 0 0 -0 -0 -0 -0 -0
Wind_Speed_500mb
19 22 10 3 1 2 4 3 6 6 10 23 61 18 17 9 6 6 51 68 64 66 63 57 48 46 42 38 33 32 31 31 30 31 31 30 30 29 28 27 24 24 26 25 19 20 23 23 23
23 22 10 3 3 1 3 4 4 4 7 49 36 22 9 6 8 41 80 68 64 65 63 56 48 43 39 35 32 31 31 31 30 30 32 29 32 31 28 27 25 25 25 24 22 24 28 30 31
23 10 3 3 1 3 1 7 18 19 19 32 15 20 7 7 23 83 73 70 66 63 60 54 49 41 36 32 32 29 28 28 28 28 28 28 30 29 28 26 26 26 26 27 27 24 28 27 29
18 9 7 2 2 4 6 9 16 22 10 13 31 19 11 5 79 55 78 67 66 61 58 52 49 39 33 31 30 27 27 28 29 27 28 30 32 29 27 27 27 26 26 26 26 24 27 28 31
13 3 1 2 1 4 9 12 3 13 6 7 6 11 21 47 47 77 73 67 66 62 56 53 46 38 33 30 29 27 27 29 29 25 25 29 30 29 29 29 29 28 26 24 23 24 23 23 24
6 2 2 3 3 5 12 29 5 14 7 21 30 34 18 24 68 74 69 66 62 60 57 51 44 38 33 31 28 27 27 28 27 27 30 28 32 32 31 32 32 31 31 31 27 22 22 24 22
4 3 2 3 7 7 5 22 19 14 13 12 44 11 25 52 76 71 68 62 60 56 54 50 45 39 34 31 27 26 27 28 30 31 32 34 34 32 31 31 30 28 26 25 26 25 22 22 23
5 2 4 6 4 8 5 10 29 24 8 37 35 16 28 83 72 67 63 59 57 55 52 51 46 40 35 32 29 28 28 30 31 32 32 33 33 32 29 27 26 23 23 22 22 23 24 23 21
9 2 7 6 7 6 4 8 26 13 31 8 14 28 76 91 73 67 62 59 56 53 52 49 45 40 36 32 30 29 28 30 32 31 30 31 29 28 26 23 21 19 18 19 17 23 22 22 19
8 4 11 12 8 4 4 28 28 12 24 11 27 43 96 84 73 74 67 65 62 58 55 49 44 40 37 33 30 30 32 34 33 32 31 29 26 23 21 19 15 16 12 12 16 18 21 20 20
13 10 11 10 12 9 10 9 9 36 7 19 75 96 101 82 76 77 68 66 66 59 55 51 45 40 36 32 31 32 35 33 28 26 25 24 23 19 16 15 15 19 5 8 15 18 18 16 16
8 28 33 17 21 18 7 22 16 40 10 44 70 114 104 90 84 81 73 68 67 62 56 51 46 41 36 33 33 34 35 25 24 22 21 17 17 13 12 11 9 9 8 10 17 20 15 9 10
24 18 22 36 26 26 14 20 18 29 3 43 89 83 86 86 81 75 70 67 65 64 57 52 48 43 39 36 36 37 28 28 20 19 16 7 10 7 12 8 8 11 11 17 16 19 15 11 12
12 32 40 40 25 15 18 7 29 18 42 67 86 79 74 80 86 76 75 72 68 64 59 52 48 45 42 41 41 35 29 28 23 14 15 7 8 4 7 9 8 10 13 12 17 16 15 15 15
37 16 16 19 23 12 26 9 5 45 61 67 73 73 70 70 78 83 83 78 68 65 58 56 50 49 46 41 41 36 29 23 20 10 10 8 6 2 4 6 10 8 17 17 14 12 14 17 12
6 9 4 13 11 18 11 5 17 44 56 58 60 62 68 67 76 80 80 75 69 62 59 58 54 55 52 42 43 35 28 26 27 23 13 10 8 6 4 10 7 7 11 10 8 16 14 11 8
4 8 14 6 22 9 9 7 24 47 53 56 61 63 66 62 66 71 78 75 71 66 57 63 61 58 56 47 46 36 26 28 30 28 20 13 6 4 4 5 5 6 9 8 11 12 10 7 4
11 9 9 13 18 19 23 9 32 57 57 61 62 65 68 71 80 80 83 77 72 68 63 65 65 57 52 49 46 41 32 32 34 25 22 17 11 4 7 6 6 11 12 10 10 10 8 4 7
4 7 10 8 15 30 36 25 40 58 50 52 62 64 69 75 80 79 79 84 78 71 72 73 71 64 59 56 52 53 48 41 34 31 25 22 21 14 8 13 12 15 13 12 10 13 9 8 4
14 15 15 10 9 11 29 31 31 40 62 70 69 68 72 69 71 80 88 90 85 82 79 79 78 71 69 63 59 54 56 55 46 38 32 30 28 21 18 15 23 19 19 17 13 16 14 13 12
22 27 21 7 9 15 20 13 21 28 38 51 65 73 70 80 79 84 94 97 100 88 89 86 81 76 79 72 65 64 58 61 59 53 43 33 30 28 23 15 21 25 22 20 17 11 17 14 15
24 21 30 17 11 12 14 9 15 40 40 39 62 78 77 80 81 88 93 94 107 105 100 91 88 81 81 82 73 65 58 73 72 65 55 44 38 34 28 20 18 27 23 24 17 12 19 19 24
22 12 21 11 13 11 17 4 13 24 38 43 53 73 83 87 91 96 102 107 103 107 103 103 95 91 83 90 82 69 61 63 72 69 59 56 46 40 34 28 21 25 26 20 21 19 16 26 27
8 10 9 3 9 19 20 20 12 15 35 45 55 71 76 84 89 98 100 98 101 101 104 108 105 100 93 91 89 78 65 62 62 63 64 54 53 52 42 35 31 25 27 26 22 23 22 29 32
24 10 9 6 11 20 18 16 35 21 39 48 45 75 83 80 85 89 93 100 105 107 107 105 112 107 101 95 96 85 72 63 62 58 58 58 53 52 48 40 37 36 27 26 27 29 28 28 30
24 26 13 12 7 19 14 14 23 25 40 61 78 81 83 90 91 96 96 101 106 107 111 113 110 110 108 100 101 90 79 67 64 60 57 59 57 51 42 41 39 38 36 28 31 29 35 33 32
15 30 21 3 2 3 6 12 20 13 19 30 53 54 71 79 93 99 99 100 101 105 114 114 113 112 110 104 102 97 82 73 69 66 58 59 57 51 46 43 41 38 36 36 32 34 34 38 37
33 13 9 1 31 20 7 8 16 18 20 20 25 55 70 83 92 84 96 100 105 111 114 112 112 109 109 108 107 98 85 75 70 69 67 63 60 54 54 50 46 43 41 39 39 38 35 38 42
3 23 7 11 11 24 9 15 12 18 22 28 28 58 73 85 89 94 108 100 106 101 109 112 115 112 113 105 104 104 92 82 74 73 71 67 62 61 59 54 50 46 43 42 48 47 45 44 42
19 15 22 16 18 8 7 32 13 21 19 19 29 60 81 84 91 93 104 102 98 99 103 111 113 114 114 108 105 102 94 87 82 78 74 70 69 65 62 62 56 55 50 46 44 48 57 55 50
Wind_Direction_500mb
148 148 153 197 333 222 255 119 286 199 166 164 159 175 172 50 157 190 146 156 157 154 151 151 146 142 142 138 135 129 125 125 123 121 116 115 123 128 127 123 123 116 113 113 104 97 92 97 112
156 163 176 247 235 341 284 308 233 221 31 127 127 107 76 99 163 142 149 158 157 156 155 155 149 144 136 134 130 125 125 124 124 122 120 119 120 121 120 121 119 115 108 104 109 102 100 99 103
158 166 233 234 147 220 162 222 263 250 171 144 117 91 80 119 151 142 154 155 157 157 157 157 154 145 136 135 130 126 124 121 122 120 121 120 119 119 118 121 118 113 107 103 107 105 109 103 105
163 204 249 222 298 167 275 335 332 139 153 80 116 91 87 201 142 150 151 156 157 157 156 158 157 150 143 137 131 127 121 122 112 117 119 118 118 117 116 115 118 115 108 108 107 107 114 108 101
175 231 293 228 85 227 250 267 284 210 57 103 141 100 108 134 151 150 153 157 159 157 158 158 158 155 148 141 136 129 123 122 126 121 116 114 115 116 113 112 113 112 107 105 110 112 117 125 111
168 109 22 112 257 232 209 234 206 235 123 130 99 113 125 152 153 153 156 157 159 157 158 158 159 159 151 146 140 132 125 126 126 120 119 115 112 109 110 111 110 108 103 98 103 114 120 128 116
274 155 234 163 271 275 239 184 200 188 167 135 132 99 130 153 157 157 158 159 158 158 160 160 160 159 154 147 143 135 131 128 127 126 122 119 115 113 112 111 108 107 103 102 98 103 115 130 131
245 88 205 243 235 293 108 153 203 183 166 144 147 161 158 162 159 158 159 163 163 164 165 163 162 160 156 150 146 139 137 132 129 127 124 122 119 113 114 114 105 102 101 99 105 105 111 133 131
244 179 226 232 196 224 229 129 142 152 146 147 172 167 160 158 158 157 161 166 168 167 168 167 165 161 160 154 148 145 142 138 134 129 130 133 130 123 119 115 107 103 107 111 117 114 118 132 126
199 223 215 233 205 249 317 143 144 127 157 72 109 150 154 156 162 162 168 171 174 172 172 171 168 166 163 157 153 152 149 145 135 131 134 139 137 135 133 124 123 112 102 115 115 112 110 123 133
200 219 229 259 244 208 182 131 135 140 203 193 145 147 156 161 168 169 175 178 178 176 175 173 172 170 165 160 159 156 149 145 143 136 141 141 136 140 134 118 110 108 88 128 135 127 120 113 124
244 226 250 274 271 183 219 168 163 175 237 196 171 158 160 166 172 175 179 181 181 181 179 175 176 173 166 165 161 158 150 146 149 151 144 148 147 145 144 126 125 118 103 142 143 146 146 112 104
232 252 260 258 251 220 181 214 185 186 224 171 157 161 164 166 174 182 185 184 183 185 181 179 179 176 171 167 163 157 153 156 150 147 152 149 165 162 194 135 106 135 116 126 151 164 157 144 109
204 234 253 266 221 180 167 114 133 147 156 155 162 169 172 171 177 181 186 185 186 185 184 183 182 178 176 169 163 157 156 153 156 146 145 102 194 195 164 139 131 121 145 127 152 155 152 146 125
261 297 313 261 223 132 115 44 111 155 158 163 170 175 179 179 180 186 186 187 185 188 186 188 186 180 172 169 169 173 170 176 183 185 163 148 133 236 187 176 172 125 136 136 130 151 139 149 146
165 134 259 271 232 164 110 208 157 155 156 164 173 179 183 189 189 191 192 190 190 187 192 192 190 188 181 176 178 182 189 193 191 202 202 195 227 250 272 163 176 150 135 123 121 127 141 144 137
316 192 197 240 189 142 174 152 174 166 166 172 182 184 186 191 195 197 198 194 192 193 193 192 191 191 193 186 187 194 200 198 190 195 200 204 254 276 247 182 217 180 188 166 137 125 125 148 242
194 196 215 190 204 182 191 195 165 182 181 182 187 189 190 196 199 197 201 204 197 198 201 197 194 196 194 192 195 201 210 207 202 207 202 206 233 241 221 239 256 204 191 190 176 177 182 202 194
207 225 228 227 207 189 204 184 179 184 190 190 196 197 197 204 203 201 202 207 207 205 208 204 202 203 203 200 199 204 212 212 205 208 206 221 236 237 235 228 223 200 191 211 198 210 189 193 206
248 267 268 321 226 129 206 221 188 183 194 192 195 203 202 204 205 206 207 206 208 209 209 210 210 211 211 210 210 213 213 217 220 220 214 220 230 233 239 257 231 224 228 228 232 226 215 223 225
213 220 237 162 202 220 169 246 202 198 207 203 211 208 207 200 205 205 211 213 206 213 212 214 214 219 219 217 216 220 223 224 222 221 222 218 224 228 231 252 227 226 229 222 225 218 213 219 192
228 190 231 223 192 210 155 242 219 209 208 202 215 205 208 206 208 209 210 214 211 215 216 217 218 221 221 219 218 222 226 222 223 225 226 224 227 227 226 238 234 233 224 221 229 232 224 219 208
243 168 222 197 201 174 219 195 251 199 224 213 210 207 207 206 205 210 212 215 215 215 219 221 221 222 222 220 219 222 227 229 228 228 228 226 227 230 230 232 242 242 234 235 222 237 228 212 209
256 214 235 155 201 242 218 208 247 183 215 219 210 208 206 206 208 211 214 213 214 217 219 223 223 224 224 223 222 224 230 232 229 228 225 222 227 230 230 228 239 246 238 230 229 235 233 219 219
208 122 245 258 202 230 188 205 232 213 216 213 207 210 208 205 208 209 210 214 217 215 216 221 223 224 225 226 223 227 231 236 232 228 223 218 216 221 226 227 233 240 241 235 235 234 230 228 228
208 202 193 194 187 237 189 210 232 208 228 216 211 219 211 209 207 209 211 212 217 219 216 221 222 224 225 226 225 229 232 237 235 231 229 223 220 222 221 224 234 241 245 243 239 241 233 235 236
210 212 199 145 201 340 205 250 276 216 232 219 217 203 204 208 211 211 210 213 212 216 219 221 224 224 225 225 227 229 233 237 236 234 230 228 227 224 225 225 234 242 247 246 243 243 243 237 240
220 171 175 211 229 240 279 244 220 189 218 217 207 205 204 207 210 206 207 210 217 222 221 223 224 224 225 226 227 230 234 237 237 235 233 231 230 228 229 227 231 239 243 243 244 247 249 246 244
337 220 238 168 169 225 250 250 220 216 193 201 210 212 213 208 206 203 208 208 215 215 217 222 222 223 224 226 228 229 233 236 237 237 235 234 233 230 227 228 229 231 237 244 247 250 251 253 253
256 278 205 204 219 246 224 244 265 221 219 196 211 221 227 217 208 203 207 203 205 210 217 225 224 224 224 227 230 231 235 237 238 238 237 235 234 232 230 230 233 232 234 237 244 252 251 251 255
Wind_Speed_850mb
19 22 10 3 1 2 4 3 6 6 10 23 61 18 17 9 6 6 51 68 64 66 63 57 48 46 42 38 33 32 31 31 30 31 31 30 30 29 28 27 24 24 26 25 19 20 23 23 23
23 22 10 3 3 1 3 4 4 4 7 49 36 22 9 6 8 41 80 68 64 65 63 56 48 43 39 35 32 31 31 31 30 30 32 29 32 31 28 27 25 25 25 24 22 24 28 30 31
23 10 3 3 1 3 1 7 18 19 19 32 15 20 7 7 23 83 73 70 66 63 60 54 49 41 36 32 32 29 28 28 28 28 28 28 30 29 28 26 26 26 26 27 27 24 28 27 29
18 9 7 2 2 4 6 9 16 22 10 13 31 19 11 5 79 55 78 67 66 61 58 52 49 39 33 31 30 27 27 28 29 27 28 30 32 29 27 27 27 26 26 26 26 24 27 28 31
13 3 1 2 1 4 9 12 3 13 6 7 6 11 21 47 47 77 73 67 66 62 56 53 46 38 33 30 29 27 27 29 29 25 25 29 30 29 29 29 29 28 26 24 23 24 23 23 24
6 2 2 3 3 5 12 29 5 14 7 21 30 34 18 24 68 74 69 66 62 60 57 51 44 38 33 31 28 27 27 28 27 27 30 28 32 32 31 32 32 31 31 31 27 22 22 24 22
4 3 2 3 7 7 5 22 19 14 13 12 44 11 25 52 76 71 68 62 60 56 54 50 45 39 34 31 27 26 27 28 30 31 32 34 34 32 31 31 30 28 26 25 26 25 22 22 23
5 2 4 6 4 8 5 10 29 24 8 37 35 16 28 83 72 67 63 59 57 55 52 51 46 40 35 32 29 28 28 30 31 32 32 33 33 32 29 27 26 23 23 22 22 23 24 23 21
9 2 7 6 7 6 4 8 26 13 31 8 14 28 76 91 73 67 62 59 56 53 52 49 45 40 36 32 30 29 28 30 32 31 30 31 29 28 26 23 21 19 18 19 17 23 22 22 19
8 4 11 12 8 4 4 28 28 12 24 11 27 43 96 84 73 74 67 65 62 58 55 49 44 40 37 33 30 30 32 34 33 32 31 29 26 23 21 19 15 16 12 12 16 18 21 20 20
13 10 11 10 12 9 10 9 9 36 7 19 75 96 101 82 76 77 68 66 66 59 55 51 45 40 36 32 31 32 35 33 28 26 25 24 23 19 16 15 15 19 5 8 15 18 18 16 16
8 28 33 17 21 18 7 22 16 40 10 44 70 114 104 90 84 81 73 68 67 62 56 51 46 41 36 33 33 34 35 25 24 22 21 17 17 13 12 11 9 9 8 10 17 20 15 9 10
24 18 22 36 26 26 14 20 18 29 3 43 89 83 86 86 81 75 70 67 65 64 57 52 48 43 39 36 36 37 28 28 20 19 16 7 10 7 12 8 8 11 11 17 16 19 15 11 12
12 32 40 40 25 15 18 7 29 18 42 67 86 79 74 80 86 76 75 72 68 64 59 52 48 45 42 41 41 35 29 28 23 14 15 7 8 4 7 9 8 10 13 12 17 16 15 15 15
37 16 16 19 23 12 26 9 5 45 61 67 73 73 70 70 78 83 83 78 68 65 58 56 50 49 46 41 41 36 29 23 20 10 10 8 6 2 4 6 10 8 17 17 14 12 14 17 12
6 9 4 13 11 18 11 5 17 44 56 58 60 62 68 67 76 80 80 75 69 62 59 58 54 55 52 42 43 35 28 26 27 23 13 10 8 6 4 10 7 7 11 10 8 16 14 11 8
4 8 14 6 22 9 9 7 24 47 53 56 61 63 66 62 66 71 78 75 71 66 57 63 61 58 56 47 46 36 26 28 30 28 20 13 6 4 4 5 5 6 9 8 11 12 10 7 4
11 9 9 13 18 19 23 9 32 57 57 61 62 65 68 71 80 80 83 77 72 68 63 65 65 57 52 49 46 41 32 32 34 25 22 17 11 4 7 6 6 11 12 10 10 10 8 4 7
4 7 10 8 15 30 36 25 40 58 50 52 62 64 69 75 80 79 79 84 78 71 72 73 71 64 59 56 52 53 48 41 34 31 25 22 21 14 8 13 12 15 13 12 10 13 9 8 4
14 15 15 10 9 11 29 31 31 40 62 70 69 68 72 69 71 80 88 90 85 82 79 79 78 71 69 63 59 54 56 55 46 38 32 30 28 21 18 15 23 19 19 17 13 16 14 13 12
22 27 21 7 9 15 20 13 21 28 38 51 65 73 70 80 79 84 94 97 100 88 89 86 81 76 79 72 65 64 58 61 59 53 43 33 30 28 23 15 21 25 22 20 17 11 17 14 15
24 21 30 17 11 12 14 9 15 40 40 39 62 78 77 80 81 88 93 94 107 105 100 91 88 81 81 82 73 65 58 73 72 65 55 44 38 34 28 20 18 27 23 24 17 12 19 19 24
22 12 21 11 13 11 17 4 13 24 38 43 53 73 83 87 91 96 102 107 103 107 103 103 95 91 83 90 82 69 61 63 72 69 59 56 46 40 34 28 21 25 26 20 21 19 16 26 27
8 10 9 3 9 19 20 20 12 15 35 45 55 71 76 84 89 98 100 98 101 101 104 108 105 100 93 91 89 78 65 62 62 63 64 54 53 52 42 35 31 25 27 26 22 23 22 29 32
24 10 9 6 11 20 18 16 35 21 39 48 45 75 83 80 85 89 93 100 105 107 107 105 112 107 101 95 96 85 72 63 62 58 58 58 53 52 48 40 37 36 27 26 27 29 28 28 30
24 26 13 12 7 19 14 14 23 25 40 61 78 81 83 90 91 96 96 101 106 107 111 113 110 110 108 100 101 90 79 67 64 60 57 59 57 51 42 41 39 38 36 28 31 29 35 33 32
15 30 21 3 2 3 6 12 20 13 19 30 53 54 71 79 93 99 99 100 101 105 114 114 113 112 110 104 102 97 82 73 69 66 58 59 57 51 46 43 41 38 36 36 32 34 34 38 37
33 13 9 1 31 20 7 8 16 18 20 20 25 55 70 83 92 84 96 100 105 111 114 112 112 109 109 108 107 98 85 75 70 69 67 63 60 54 54 50 46 43 41 39 39 38 35 38 42
3 23 7 11 11 24 9 15 12 18 22 28 28 58 73 85 89 94 108 100 106 101 109 112 115 112 113 105 104 104 92 82 74 73 71 67 62 61 59 54 50 46 43 42 48 47 45 44 42
19 15 22 16 18 8 7 32 13 21 19 19 29 60 81 84 91 93 104 102 98 99 103 111 113 114 114 108 105 102 94 87 82 78 74 70 69 65 62 62 56 55 50 46 44 48 57 55 50
Wind_Direction_850mb
148 148 153 197 333 222 255 119 286 199 166 164 159 175 172 50 157 190 146 156 157 154 151 151 146 142 142 138 135 129 125 125 123 121 116 115 123 128 127 123 123 116 113 113 104 97 92 97 112
156 163 176 247 235 341 284 308 233 221 31 127 127 107 76 99 163 142 149 158 157 156 155 155 149 144 136 134 130 125 125 124 124 122 120 119 120 121 120 121 119 115 108 104 109 102 100 99 103
158 166 233 234 147 220 162 222 263 250 171 144 117 91 80 119 151 142 154 155 157 157 157 157 154 145 136 135 130 126 124 121 122 120 121 120 119 119 118 121 118 113 107 103 107 105 109 103 105
163 204 249 222 298 167 275 335 332 139 153 80 116 91 87 201 142 150 151 156 157 157 156 158 157 150 143 137 131 127 121 122 112 117 119 118 118 117 116 115 118 115 108 108 107 107 114 108 101
175 231 293 228 85 227 250 267 284 210 57 103 141 100 108 134 151 150 153 157 159 157 158 158 158 155 148 141 136 129 123 122 126 121 116 114 115 116 113 112 113 112 107 105 110 112 117 125 111
168 109 22 112 257 232 209 234 206 235 123 130 99 113 125 152 153 153 156 157 159 157 158 158 159 159 151 146 140 132 125 126 126 120 119 115 112 109 110 111 110 108 103 98 103 114 120 128 116
274 155 234 163 271 275 239 184 200 188 167 135 132 99 130 153 157 157 158 159 158 158 160 160 160 159 154 147 143 135 131 128 127 126 122 119 115 113 112 111 108 107 103 102 98 103 115 130 131
245 88 205 243 235 293 108 153 203 183 166 144 147 161 158 162 159 158 159 163 163 164 165 163 162 160 156 150 146 139 137 132 129 127 124 122 119 113 114 114 105 102 101 99 105 105 111 133 131
244 179 226 232 196 224 229 129 142 152 146 147 172 167 160 158 158 157 161 166 168 167 168 167 165 161 160 154 148 145 142 138 134 129 130 133 130 123 119 115 107 103 107 111 117 114 118 132 126
199 223 215 233 205 249 317 143 144 127 157 72 109 150 154 156 162 162 168 171 174 172 172 171 168 166 163 157 153 152 149 145 135 131 134 139 137 135 133 124 123 112 102 115 115 112 110 123 133
200 219 229 259 244 208 182 131 135 140 203 193 145 147 156 161 168 169 175 178 178 176 175 173 172 170 165 160 159 156 149 145 143 136 141 141 136 140 134 118 110 108 88 128 135 127 120 113 124
244 226 250 274 271 183 219 168 163 175 237 196 171 158 160 166 172 175 179 181 181 181 179 175 176 173 166 165 161 158 150 146 149 151 144 148 147 145 144 126 125 118 103 142 143 146 146 112 104
232 252 260 258 251 220 181 214 185 186 224 171 157 161 164 166 174 182 185 184 183 185 181 179 179 176 171 167 163 157 153 156 150 147 152 149 165 162 194 135 106 135 116 126 151 164 157 144 109
204 234 253 266 221 180 167 114 133 147 156 155 162 169 172 171 177 181 186 185 186 185 184 183 182 178 176 169 163 157 156 153 156 146 145 102 194 195 164 139 131 121 145 127 152 155 152 146 125
261 297 313 261 223 132 115 44 111 155 158 163 170 175 179 179 180 186 186 187 185 188 186 188 186 180 172 169 169 173 170 176 183 185 163 148 133 236 187 176 172 125 136 136 130 151 139 149 146
165 134 259 271 232 164 110 208 157 155 156 164 173 179 183 189 189 191 192 190 190 187 192 192 190 188 181 176 178 182 189 193 191 202 202 195 227 250 272 163 176 150 135 123 121 127 141 144 137
316 192 197 240 189 142 174 152 174 166 166 172 182 184 186 191 195 197 198 194 192 193 193 192 191 191 193 186 187 194 200 198 190 195 200 204 254 276 247 182 217 180 188 166 137 125 125 148 242
194 196 215 190 204 182 191 195 165 182 181 182 187 189 190 196 199 197 201 204 197 198 201 197 194 196 194 192 195 201 210 207 202 207 202 206 233 241 221 239 256 204 191 190 176 177 182 202 194
207 225 228 227 207 189 204 184 179 184 190 190 196 197 197 204 203 201 202 207 207 205 208 204 202 203 203 200 199 204 212 212 205 208 206 221 236 237 235 228 223 200 191 211 198 210 189 193 206
248 267 268 321 226 129 206 221 188 183 194 192 195 203 202 204 205 206 207 206 208 209 209 210 210 211 211 210 210 213 213 217 220 220 214 220 230 233 239 257 231 224 228 228 232 226 215 223 225
213 220 237 162 202 220 169 246 202 198 207 203 211 208 207 200 205 205 211 213 206 213 212 214 214 219 219 217 216 220 223 224 222 221 222 218 224 228 231 252 227 226 229 222 225 218 213 219 192
228 190 231 223 192 210 155 242 219 209 208 202 215 205 208 206 208 209 210 214 211 215 216 217 218 221 221 219 218 222 226 222 223 225 226 224 227 227 226 238 234 233 224 221 229 232 224 219 208
243 168 222 197 201 174 219 195 251 199 224 213 210 207 207 206 205 210 212 215 215 215 219 221 221 222 222 220 219 222 227 229 228 228 228 226 227 230 230 232 242 242 234 235 222 237 228 212 209
256 214 235 155 201 242 218 208 247 183 215 219 210 208 206 206 208 211 214 213 214 217 219 223 223 224 224 223 222 224 230 232 229 228 225 222 227 230 230 228 239 246 238 230 229 235 233 219 219
208 122 245 258 202 230 188 205 232 213 216 213 207 210 208 205 208 209 210 214 217 215 216 221 223 224 225 226 223 227 231 236 232 228 223 218 216 221 226 227 233 240 241 235 235 234 230 228 228
208 202 193 194 187 237 189 210 232 208 228 216 211 219 211 209 207 209 211 212 217 219 216 221 222 224 225 226 225 229 232 237 235 231 229 223 220 222 221 224 234 241 245 243 239 241 233 235 236
210 212 199 145 201 340 205 250 276 216 232 219 217 203 204 208 211 211 210 213 212 216 219 221 224 224 225 225 227 229 233 237 236 234 230 228 227 224 225 225 234 242 247 246 243 243 243 237 240
220 171 175 211 229 240 279 244 220 189 218 217 207 205 204 207 210 206 207 210 217 222 221 223 224 224 225 226 227 230 234 237 237 235 233 231 230 228 229 227 231 239 243 243 244 247 249 246 244
337 220 238 168 169 225 250 250 220 216 193 201 210 212 213 208 206 203 208 208 215 215 217 222 222 223 224 226 228 229 233 236 237 237 235 234 233 230 227 228 229 231 237 244 247 250 251 253 253
256 278 205 204 219 246 224 244 265 221 219 196 211 221 227 217 208 203 207 203 205 210 217 225 224 224 224 227 230 231 235 237 238 238 237 235 234 232 230 230 233 232 234 237 244 252 251 251 255